Location: Oriwa
(40.7500°S, 175.3333°E)
Time: 14:12:22
(UTC+00:00)

Cosmos 2034 Rocket - Pass Details

Date: 03 February 2023
Orbit: 957 x 1001 km, 82.9° (Epoch: 30 March)

Event Time Altitude Azimuth Distance (km) Brightness Sun altitude
Exits shadow 16:08:49 - 356° (N) 3,329 6.4 -14.0°
Reaches altitude 10° 16:10:24 10° 357° (N) 2,734 6.0 -13.7°
Maximum altitude 16:16:41 86° 84° (E) 991 4.1 -12.8°
Drops below altitude 10° 16:22:59 10° 172° (S) 2,738 7.0 -11.8°
Sets 16:25:30 0° 172° (S) 3,687 7.7 -11.4°
